User: anonymous   Login
Location: Unspecified
(0.0000°N, 0.0000°E)
Time: 17:07:16
(UTC+00:00)
Language:

DSCS III B-4 - Orbit

View from above orbital plane
View from above orbital plane
View from above satellite
View from above satellite

Ground track
Ground track

The orbit data is extracted from the following two-line orbital elements,

1 16116U 85092B   20049.83667928 -.00000049  00000-0  00000+0 0  9996
2 16116  15.2354   5.8576 0004593   5.5242 163.7886  0.99321978  2950
Epoch (UTC): 18 February 2020 20:04:49
Eccentricity: 0.0004593
inclination: 15.2354°
perigee height: 36035 km
apogee height: 36074 km
right ascension of ascending node: 5.8576°
argument of perigee: 5.5242°
revolutions per day: 0.99321978
mean anomaly at epoch: 163.7886°
orbit number at epoch: 295

The dashed part of the orbit path shows where the satellite is in the earth's shadow,  

DLR